User: anonymous   Login
Location: Cluny
(50.9333°N, 112.8167°W)
Time: 16:32:29
(UTC-06:00)
Language:

Cosmos 1743 Rocket - Orbit

View from above orbital plane
View from above orbital plane
View from above satellite
View from above satellite

Ground track
Ground track

The orbit data is extracted from the following two-line orbital elements,

1 16720U 86034B   18109.91760449 +.00000074 +00000-0 +60479-5 0  9998
2 16720 082.5520 315.5269 0020541 165.4231 269.8414 14.83329879703643
Epoch (UTC): 19 April 2018 22:01:21
Eccentricity: 0.0020541
inclination: 82.5520°
perigee height: 604 km
apogee height: 633 km
right ascension of ascending node: 315.5269°
argument of perigee: 165.4231°
revolutions per day: 14.83329879
mean anomaly at epoch: 269.8414°
orbit number at epoch: 70364

The dashed part of the orbit path shows where the satellite is in the earth's shadow,  

DLR